Estación Meteorológica Peña el Pijo (Robertgarden) [ 09/29/20 21:14:38 CEST ]

Fecha Hora Presion(HPa) Temp (°C) Humedad % Rocio (°C) Viento ( m/s) Direccion Lluvia 1Hora(mm) Lluvia 24H(mm) LLuvia Total(mm)
2020-Mar-25 01:09:10 1004.700 - - - - N     39.88
2020-Mar-25 02:09:50 1004.600 - - - - N     39.88
2020-Mar-25 03:09:42 1004.400 - - - - N     39.88
2020-Mar-25 04:13:08 1004.000 - - - - N     39.88
2020-Mar-25 05:09:25 1003.800 - - - - N     39.88
2020-Mar-25 06:09:16 1003.900 - - - - N     39.88
2020-Mar-25 07:09:05 1003.800 - - - - N     39.88
2020-Mar-25 08:09:19 1003.900 - - - - N     39.88
2020-Mar-25 09:08:58 1004.000 - - - - N     39.88
2020-Mar-25 10:09:11 1004.500 - - - - N     39.88
2020-Mar-25 11:09:27 1004.200 - - - - N     39.88
2020-Mar-25 12:09:10 1003.700 - - - - N     39.88
2020-Mar-25 13:09:06 1003.500 - - - - N     39.88
2020-Mar-25 14:09:27 1002.800 - - - - N     39.88
2020-Mar-25 15:09:33 1002.400 - - - - N     39.88
2020-Mar-25 16:09:04 1002.400 - - - - N     39.88
2020-Mar-25 17:08:56 1002.300 - - - - N     39.88
2020-Mar-25 18:09:24 1002.200 - - - - N     39.88
2020-Mar-25 19:09:39 1002.100 - - - - N     39.88
2020-Mar-25 20:08:56 1002.400 - - - - N     39.88
2020-Mar-25 21:08:53 1003.000 - - - - N     39.88
2020-Mar-25 22:09:02 1002.700 - - - - N     39.88
2020-Mar-25 23:09:14 1002.100 - - - - N     39.88

Temperatura Máxima:    Temperatura Mínima:
Presión Máxima:1004.700 Hpa    Presión Mínima:1002.100 Hpa


Volver